Altus, OK

7:26 AM CDT on April 28, 2017 (GMT -0500)
Altus Municipal

Weather History for KAXS - June, 2012

Change the Weather History Date:

Saturday, June 9, 2012

  Actual Average (KLTS) Record (KLTS)
Temperature  
Mean Temperature 80 °F -  
Max Temperature 95 °F 88 °F 103 °F (2011)
Min Temperature 64 °F 65 °F 60 °F (2014)
Cooling Degree Days 14    
Growing Degree Days 30 (Base 50)    
Moisture  
Dew Point 61 °F    
Average Humidity 55    
Maximum Humidity 83    
Minimum Humidity 32    
Precipitation  
Precipitation 0.00 in - - ()
Sea Level Pressure  
Sea Level Pressure 29.79 in    
Wind  
Wind Speed 13 mph (SSE)    
Max Wind Speed 25 mph    
Max Gust Speed 32 mph    
Visibility 10 miles    
Events      
Averages and records for this station are not official NWS values.
T = Trace of Precipitation, MM = Missing Value Source: NWS Daily Summary

Daily Weather History Graph

Daily Weather History Graph

Search for Another Location

Airport or City:

Trip Planner

Search our weather history database for the weather conditions in past years. The results will help you decide how hot, cold, wet, or windy it might be!

Date:

Astronomy

Jun. 09, 2012 Rise Set
Actual Time 6:23 AM CDT 8:49 PM CDT
Civil Twilight 5:54 AM CDT 9:19 PM CDT
Nautical Twilight 5:18 AM CDT 9:55 PM CDT
Astronomical Twilight 4:38 AM CDT 10:35 PM CDT
Moon 12:24 AM CDT (6/9) 11:59 AM CDT (6/9)
Length of Visible Light 15h 24m
Length of Day
14h 26m
Waning Gibbous, 68% of the Moon is Illuminated
Jun 9
Waning Gibbous
Jun 11
Last Quarter
Jun 19
New
Jun 26
First Quarter
Jul 3
Full

Hourly Weather History & Observations

Time (CDT) Temp. Heat Index Dew Point Humidity Pressure Visibility Wind Dir Wind Speed Gust Speed Precip Events Conditions
12:15 AM 71.6 °F - 59.0 °F 64% 29.92 in 10.0 mi SE 9.2 mph - N/A   Clear
12:35 AM 71.6 °F - 57.2 °F 60% 29.92 in 10.0 mi SE 10.4 mph - N/A   Clear
12:55 AM 69.8 °F - 57.2 °F 64% 29.92 in 10.0 mi SE 9.2 mph - N/A   Clear
1:15 AM 69.8 °F - 57.2 °F 64% 29.92 in 10.0 mi SE 9.2 mph - N/A   Clear
1:35 AM 69.8 °F - 57.2 °F 64% 29.91 in 10.0 mi SE 9.2 mph - N/A   Clear
1:55 AM 69.8 °F - 57.2 °F 64% 29.90 in 10.0 mi SE 9.2 mph - N/A   Clear
2:15 AM 69.8 °F - 57.2 °F 64% 29.90 in 10.0 mi SE 9.2 mph - N/A   Clear
2:35 AM 68.0 °F - 57.2 °F 68% 29.90 in 10.0 mi SE 8.1 mph - N/A   Clear
2:55 AM 68.0 °F - 57.2 °F 68% 29.89 in 10.0 mi SE 8.1 mph - N/A   Clear
3:15 AM 68.0 °F - 57.2 °F 68% 29.88 in 10.0 mi SE 6.9 mph - N/A   Clear
3:35 AM 68.0 °F - 59.0 °F 73% 29.89 in 10.0 mi SE 6.9 mph - N/A   Clear
3:55 AM 66.2 °F - 59.0 °F 78% 29.88 in 10.0 mi SE 6.9 mph - N/A   Clear
4:15 AM 66.2 °F - 59.0 °F 78% 29.88 in 10.0 mi SE 5.8 mph - N/A   Clear
4:35 AM 64.4 °F - 59.0 °F 83% 29.88 in 10.0 mi SE 5.8 mph - N/A   Clear
4:55 AM 64.4 °F - 59.0 °F 83% 29.87 in 10.0 mi SE 6.9 mph - N/A   Clear
5:15 AM 64.4 °F - 59.0 °F 83% 29.87 in 10.0 mi SE 6.9 mph - N/A   Clear
5:35 AM 64.4 °F - 59.0 °F 83% 29.87 in 10.0 mi SE 5.8 mph - N/A   Clear
5:55 AM 64.4 °F - 59.0 °F 83% 29.86 in 10.0 mi ESE 6.9 mph - N/A   Clear
6:15 AM 64.4 °F - 59.0 °F 83% 29.86 in 10.0 mi ESE 5.8 mph - N/A   Clear
6:35 AM 64.4 °F - 59.0 °F 83% 29.86 in 10.0 mi SE 5.8 mph - N/A   Clear
6:55 AM 66.2 °F - 60.8 °F 83% 29.86 in 10.0 mi SSE 8.1 mph - N/A   Clear
7:15 AM 68.0 °F - 60.8 °F 78% 29.86 in 10.0 mi SSE 8.1 mph - N/A   Clear
7:35 AM 68.0 °F - 62.6 °F 83% 29.87 in 10.0 mi SSE 9.2 mph - N/A   Clear
7:55 AM 69.8 °F - 62.6 °F 78% 29.86 in 10.0 mi SSE 12.7 mph 17.3 mph N/A   Clear
8:15 AM 71.6 °F - 62.6 °F 73% 29.86 in 10.0 mi SSE 11.5 mph - N/A   Clear
8:35 AM 73.4 °F - 64.4 °F 73% 29.86 in 10.0 mi South 13.8 mph 17.3 mph N/A   Clear
8:55 AM 73.4 °F - 64.4 °F 73% 29.86 in 10.0 mi South 15.0 mph 20.7 mph N/A   Clear
9:15 AM 75.2 °F - 64.4 °F 69% 29.87 in 10.0 mi South 12.7 mph - N/A   Clear
9:35 AM 77.0 °F - 64.4 °F 65% 29.87 in 10.0 mi South 15.0 mph - N/A   Clear
9:55 AM 78.8 °F - 64.4 °F 61% 29.86 in 10.0 mi South 18.4 mph - N/A   Scattered Clouds
10:15 AM 78.8 °F - 64.4 °F 61% 29.85 in 10.0 mi South 17.3 mph 24.2 mph N/A   Scattered Clouds
10:35 AM 80.6 °F 82.3 °F 64.4 °F 58% 29.84 in 10.0 mi South 15.0 mph - N/A   Scattered Clouds
10:55 AM 82.4 °F 83.9 °F 64.4 °F 54% 29.83 in 10.0 mi South 15.0 mph 21.9 mph N/A   Clear
11:15 AM 82.4 °F 83.4 °F 62.6 °F 51% 29.83 in 10.0 mi South 17.3 mph 21.9 mph N/A   Clear
11:35 AM 86.0 °F 86.6 °F 62.6 °F 45% 29.82 in 10.0 mi South 12.7 mph - N/A   Clear
11:55 AM 86.0 °F 86.6 °F 62.6 °F 45% 29.81 in 10.0 mi South 16.1 mph - N/A   Clear
12:15 PM 86.0 °F 86.6 °F 62.6 °F 45% 29.80 in 10.0 mi SSE 16.1 mph - N/A   Clear
12:35 PM 87.8 °F 88.5 °F 62.6 °F 43% 29.79 in 10.0 mi SSE 15.0 mph 23.0 mph N/A   Clear
12:55 PM 87.8 °F 88.5 °F 62.6 °F 43% 29.79 in 10.0 mi SSE 18.4 mph 21.9 mph N/A   Clear
1:15 PM 89.6 °F 89.5 °F 60.8 °F 38% 29.77 in 10.0 mi South 13.8 mph 25.3 mph N/A   Clear
1:35 PM 89.6 °F 89.5 °F 60.8 °F 38% 29.77 in 10.0 mi SSE 17.3 mph 25.3 mph N/A   Clear
2:15 PM 91.4 °F 91.4 °F 60.8 °F 36% 29.75 in 10.0 mi South 19.6 mph 27.6 mph N/A   Clear
2:35 PM 91.4 °F 91.4 °F 60.8 °F 36% 29.73 in 10.0 mi South 20.7 mph 26.5 mph N/A   Clear
2:55 PM 93.2 °F 93.3 °F 60.8 °F 34% 29.72 in 10.0 mi South 21.9 mph - N/A   Clear
3:15 PM 93.2 °F 93.3 °F 60.8 °F 34% 29.72 in 10.0 mi South 19.6 mph 28.8 mph N/A   Clear
3:35 PM 95.0 °F 95.2 °F 60.8 °F 32% 29.71 in 10.0 mi SSE 20.7 mph 28.8 mph N/A   Clear
3:55 PM 95.0 °F 95.2 °F 60.8 °F 32% 29.70 in 10.0 mi SSE 19.6 mph 31.1 mph N/A   Clear
4:15 PM 95.0 °F 95.2 °F 60.8 °F 32% 29.70 in 10.0 mi SSE 19.6 mph 29.9 mph N/A   Clear
4:35 PM 95.0 °F 95.2 °F 60.8 °F 32% 29.69 in 10.0 mi South 25.3 mph - N/A   Clear
4:55 PM 95.0 °F 95.2 °F 60.8 °F 32% 29.68 in 10.0 mi SSE 19.6 mph 28.8 mph N/A   Clear
5:15 PM 95.0 °F 95.2 °F 60.8 °F 32% 29.67 in 10.0 mi SSE 25.3 mph 32.2 mph N/A   Clear
5:35 PM 95.0 °F 95.2 °F 60.8 °F 32% 29.67 in 10.0 mi South 20.7 mph 31.1 mph N/A   Clear
5:55 PM 95.0 °F 95.2 °F 60.8 °F 32% 29.67 in 10.0 mi South 23.0 mph 29.9 mph N/A   Clear
6:15 PM 93.2 °F 93.3 °F 60.8 °F 34% 29.67 in 10.0 mi SSE 19.6 mph - N/A   Clear
6:35 PM 95.0 °F 95.2 °F 60.8 °F 32% 29.66 in 10.0 mi South 23.0 mph 27.6 mph N/A   Clear
6:55 PM 93.2 °F 93.3 °F 60.8 °F 34% 29.66 in 10.0 mi SSE 21.9 mph 27.6 mph N/A   Clear
7:15 PM 91.4 °F 91.4 °F 60.8 °F 36% 29.66 in 4.0 mi South 19.6 mph 26.5 mph N/A   Haze
7:35 PM 91.4 °F 92.1 °F 62.6 °F 38% 29.66 in 10.0 mi South 21.9 mph 27.6 mph N/A   Clear
7:55 PM 89.6 °F 90.1 °F 62.6 °F 40% 29.66 in 10.0 mi SSE 21.9 mph 25.3 mph N/A   Clear
8:15 PM 89.6 °F 90.1 °F 62.6 °F 40% 29.66 in 10.0 mi SSE 23.0 mph 27.6 mph N/A   Clear
8:35 PM 87.8 °F 88.5 °F 62.6 °F 43% 29.66 in 10.0 mi SSE 19.6 mph 27.6 mph N/A   Clear
8:55 PM 86.0 °F 87.3 °F 64.4 °F 48% 29.66 in 10.0 mi SSE 21.9 mph 26.5 mph N/A   Clear
9:15 PM 86.0 °F 87.3 °F 64.4 °F 48% 29.66 in 10.0 mi SE 18.4 mph - N/A   Clear
9:35 PM 84.2 °F 85.0 °F 62.6 °F 48% 29.66 in 10.0 mi SE 19.6 mph 25.3 mph N/A   Clear
9:55 PM 84.2 °F 85.0 °F 62.6 °F 48% 29.67 in 10.0 mi SE 18.4 mph - N/A   Clear
10:15 PM 82.4 °F 83.4 °F 62.6 °F 51% 29.68 in 10.0 mi SE 19.6 mph 27.6 mph N/A   Clear
10:35 PM 82.4 °F 83.4 °F 62.6 °F 51% 29.69 in 10.0 mi SSE 18.4 mph 25.3 mph N/A   Clear
10:55 PM 82.4 °F 83.4 °F 62.6 °F 51% 29.69 in 10.0 mi SE 17.3 mph 21.9 mph N/A   Clear
11:15 PM 80.6 °F 81.8 °F 62.6 °F 54% 29.70 in 10.0 mi SE 16.1 mph 24.2 mph N/A   Clear
11:35 PM 80.6 °F 81.8 °F 62.6 °F 54% 29.70 in 10.0 mi SE 16.1 mph - N/A   Clear
11:55 PM 80.6 °F 81.8 °F 62.6 °F 54% 29.70 in 10.0 mi SE 16.1 mph - N/A   Clear